This is the latest recevied weather packets stored in our database for station/object WA6ODQ-13. If no packets are shown the sender has not sent any weather packets the latest 10 day(s).
| Time | Temp. | Humidity | Pressure | Rain* | Wind** | Luminosity | Snow |
|---|---|---|---|---|---|---|---|
| 1778003282 | 15.56° C | 85% | 1013.7 hPa | 0 mm | - | 174 W/m² | - |
| 1778002980 | 15.56° C | 86% | 1013.8 hPa | 0 mm | - | 111 W/m² | - |
| 1778002675 | 16.11° C | 84% | 1013.7 hPa | 0 mm | - | 179 W/m² | - |
| 1778002372 | 15.56° C | 83% | 1013.7 hPa | 0 mm | - | 184 W/m² | - |
| 1778002069 | 15.56° C | 84% | 1013.6 hPa | 0 mm | - | 134 W/m² | - |
| 1778001766 | 15.56° C | 82% | 1013.3 hPa | 0 mm | - | 105 W/m² | - |
| 1778001466 | 15.56° C | 84% | 1013.5 hPa | 0 mm | - | 115 W/m² | - |
| 1778001163 | 16.11° C | 84% | 1013.5 hPa | 0 mm | - | 185 W/m² | - |
| 1778000860 | 15.56° C | 83% | 1013.5 hPa | 0 mm | - | 196 W/m² | - |
| 1778000557 | 15° C | 85% | 1013.5 hPa | 0 mm | - | 248 W/m² | - |
| 1778000252 | 15° C | 86% | 1013.7 hPa | 0 mm | - | 112 W/m² | - |
| 1777999949 | 15° C | 85% | 1013.5 hPa | 0 mm | - | 180 W/m² | - |
| 1777999644 | 15° C | 87% | 1013.6 hPa | 0 mm | - | 240 W/m² | - |
| 1777999342 | 15° C | 88% | 1013.6 hPa | 0 mm | - | 166 W/m² | - |
| 1777999040 | 15° C | 87% | 1013.4 hPa | 0 mm | - | 183 W/m² | - |
| 1777998738 | 15° C | 88% | 1013.6 hPa | 0 mm | - | 224 W/m² | - |
| 1777998435 | 15° C | 90% | 1013.5 hPa | 0 mm | - | 249 W/m² | - |
| 1777998132 | 14.44° C | 90% | 1013.4 hPa | 0 mm | - | 198 W/m² | - |
| 1777997828 | 14.44° C | 91% | 1013.4 hPa | 0 mm | - | 151 W/m² | - |
| 1777997526 | 13.89° C | 91% | 1013.5 hPa | 0 mm | - | 114 W/m² | - |
| 1777997224 | 13.89° C | 92% | 1013.4 hPa | 0 mm | - | 110 W/m² | - |
| 1777996921 | 13.33° C | 92% | 1013.2 hPa | 0 mm | - | 78 W/m² | - |
| 1777996617 | 13.89° C | 91% | 1013.2 hPa | 0 mm | - | 51 W/m² | - |
| 1777996313 | 13.89° C | 91% | 1013.1 hPa | 0 mm | - | 44 W/m² | - |
| 1777996010 | 13.89° C | 92% | 1013.1 hPa | 0 mm | - | 50 W/m² | - |
* Rain latest hour (hover to see other rain measurements)
** Current wind speed in m/s (hover to see current wind gust speed)